C9756 Weather Reports


time (UTC)temp
C
wind
direction
speed
KPH
gust
KPH
rain 1hr
cm
rain 24hr
cm
rain mn
cm
humidity
%
barometer
mb
20260504211101 25 243 3.2 12.9 0.00 0.00 0.00 34 1012.7
20260504210601 25 255 3.2 9.7 0.00 0.00 0.00 37 1012.7
20260504210104 25 232 3.2 14.5 0.00 0.00 0.00 34 1012.8
20260504210100 24 225 3.2 14.5 0.00 0.00 0.00 35 1012.7
20260504205717 25 269 3.2 8.0 0.00 0.00 0.00 36 1012.9
20260504205219 25 229 3.2 11.3 0.00 0.00 0.00 37 1013.0
20260504204600 24 225 3.2 8.0 0.00 0.00 0.00 38 1012.9
20260504204059 25 239 3.2 11.3 0.00 0.00 0.00 36 1013.0
20260504203717 25 243 3.2 9.7 0.00 0.00 0.00 36 1013.1
20260504203215 25 243 3.2 9.7 0.00 0.00 0.00 36 1013.4
20260504202556 25 219 3.2 8.0 0.00 0.00 0.00 36 1013.3
20260504202057 25 197 3.2 9.7 0.00 0.00 0.00 37 1013.3
20260504201054 25 228 3.2 9.7 0.00 0.00 0.00 37 1013.4
20260504200556 25 210 3.2 12.9 0.00 0.00 0.00 37 1013.5
20260504200055 25 208 3.2 12.9 0.00 0.00 0.00 36 1013.5
20260504195552 25 232 3.2 9.7 0.00 0.00 0.00 37 1013.5
20260504195051 25 219 3.2 8.0 0.00 0.00 0.00 36 1013.6
20260504194551 25 242 3.2 8.0 0.00 0.00 0.00 36 1013.7
20260504193551 25 78 1.6 9.7 0.00 0.00 0.00 36 1013.8
20260504193547 25 240 1.6 6.4 0.00 0.00 0.00 36 1013.8
20260504192545 25 224 3.2 9.7 0.00 0.00 0.00 36 1013.8
20260504192044 25 248 1.6 6.4 0.00 0.00 0.00 35 1013.9
20260504191550 25 233 1.6 8.0 0.00 0.00 0.00 37 1014.1
20260504191544 25 186 1.6 8.0 0.00 0.00 0.00 37 1014.0
20260504190545 25 263 3.2 8.0 0.00 0.00 0.00 38 1014.2
20260504190048 25 251 3.2 9.7 0.00 0.00 0.00 37 1014.2
20260504190044 25 229 1.6 9.7 0.00 0.00 0.00 36 1014.3
20260504185043 25 226 1.6 8.0 0.00 0.00 0.00 38 1014.3
20260504184545 25 256 3.2 11.3 0.00 0.00 0.00 36 1014.4
20260504184540 25 99 3.2 11.3 0.00 0.00 0.00 38 1014.3
20260504183541 25 276 3.2 9.7 0.00 0.00 0.00 37 1014.4
20260504183039 25 207 3.2 9.7 0.00 0.00 0.00 38 1014.5
20260504182539 25 228 3.2 9.7 0.00 0.00 0.00 38 1014.6
20260504182039 25 260 3.2 9.7 0.00 0.00 0.00 37 1014.7
20260504181539 25 215 1.6 8.0 0.00 0.00 0.00 39 1014.6
20260504181037 25 221 1.6 8.0 0.00 0.00 0.00 40 1014.6
20260504180536 25 294 1.6 8.0 0.00 0.00 0.00 37 1014.7
20260504180039 25 354 1.6 9.7 0.00 0.00 0.00 41 1014.7
20260504175538 25 215 1.6 9.7 0.00 0.00 0.00 38 1014.7
20260504175035 24 222 1.6 4.8 0.00 0.00 0.00 39 1014.6
20260504174534 24 81 3.2 11.3 0.00 0.00 0.00 40 1014.7
20260504174032 24 214 3.2 11.3 0.00 0.00 0.00 38 1014.9
20260504173533 24 219 1.6 8.0 0.00 0.00 0.00 38 1014.9
20260504173033 24 285 1.6 9.7 0.00 0.00 0.00 38 1014.9
20260504172534 23 231 1.6 9.7 0.00 0.00 0.00 44 1015.0
20260504172032 23 82 1.6 9.7 0.00 0.00 0.00 39 1015.1
20260504171539 23 232 1.6 9.7 0.00 0.00 0.00 39 1015.4
20260504171534 23 213 3.2 9.7 0.00 0.00 0.00 38 1015.2
20260504171152 24 215 1.6 6.4 0.00 0.00 0.00 38 1015.4
20260504151018 21 219 3.2 9.7 0.00 0.00 0.00 43 1016.8
20260504150518 21 221 1.6 6.4 0.00 0.00 0.00 45 1016.8
20260504140509 18 98 0.0 3.2 0.00 0.00 0.00 61 1016.6
20260504130508 8 225 0.0 0.0 0.00 0.00 0.00 91 1016.5
20260504110509 4 225 0.0 0.0 0.00 0.00 0.00 91 1016.3
20260504100515 5 225 0.0 1.6 0.00 0.00 0.00 91 1016.1
20260504100510 5 225 0.0 1.6 0.00 0.00 0.00 91 1016.1
20260504081508 6 228 0.0 0.0 0.00 0.00 0.00 89 1016.0
20260504081008 6 228 0.0 0.0 0.00 0.00 0.00 89 1015.9
20260504080513 6 228 0.0 0.0 0.00 0.00 0.00 89 1015.8
20260504080508 6 228 0.0 0.0 0.00 0.00 0.00 89 1015.9
20260504050508 8 229 0.0 0.0 0.00 0.00 0.00 81 1016.2
20260504050010 9 228 0.0 0.0 0.00 0.00 0.00 81 1016.1
20260504045509 9 228 0.0 0.0 0.00 0.00 0.00 81 1016.1
20260504045008 9 228 0.0 0.0 0.00 0.00 0.00 81 1016.0
20260504044508 9 228 0.0 0.0 0.00 0.00 0.00 81 1015.9
20260504044008 9 228 0.0 0.0 0.00 0.00 0.00 81 1015.8
20260504043509 9 228 0.0 0.0 0.00 0.00 0.00 81 1015.7
20260504043013 9 229 0.0 0.0 0.00 0.00 0.00 80 1015.9
20260504043008 9 228 0.0 0.0 0.00 0.00 0.00 81 1015.8
20260504042009 9 228 0.0 0.0 0.00 0.00 0.00 80 1015.9
20260504041508 9 228 0.0 0.0 0.00 0.00 0.00 80 1015.9
20260504041006 9 228 0.0 0.0 0.00 0.00 0.00 81 1015.9
20260504040509 9 228 0.0 0.0 0.00 0.00 0.00 81 1015.9
20260504040008 9 229 0.0 0.0 0.00 0.00 0.00 80 1015.9
20260504035510 9 228 0.0 0.0 0.00 0.00 0.00 78 1016.0
20260504035506 9 228 0.0 0.0 0.00 0.00 0.00 79 1016.0
20260504034514 9 228 0.0 0.0 0.00 0.00 0.00 78 1016.1
20260504034505 9 228 0.0 0.0 0.00 0.00 0.00 78 1016.1
20260504033507 9 228 0.0 0.0 0.00 0.00 0.00 78 1016.1
20260504033010 9 228 0.0 0.0 0.00 0.00 0.00 77 1016.1
20260504033005 9 228 0.0 0.0 0.00 0.00 0.00 78 1016.1
20260504032005 9 227 0.0 0.0 0.00 0.00 0.00 76 1016.1
20260504031506 9 228 0.0 0.0 0.00 0.00 0.00 75 1016.1
20260504031004 9 228 0.0 0.0 0.00 0.00 0.00 74 1016.2
20260504030506 9 227 0.0 0.0 0.00 0.00 0.00 74 1016.2
20260504030004 9 228 0.0 0.0 0.00 0.00 0.00 73 1016.2
20260504025506 10 227 0.0 0.0 0.00 0.00 0.00 73 1016.2
20260504025005 10 228 0.0 0.0 0.00 0.00 0.00 72 1016.2
20260504024506 10 228 0.0 0.0 0.00 0.00 0.00 71 1016.2
20260504024006 10 228 0.0 0.0 0.00 0.00 0.00 71 1016.2
20260504023504 10 228 0.0 0.0 0.00 0.00 0.00 70 1016.2
20260504023005 10 228 0.0 0.0 0.00 0.00 0.00 70 1016.1
20260504022511 10 228 0.0 0.0 0.00 0.00 0.00 69 1015.9
20260504022506 10 228 0.0 0.0 0.00 0.00 0.00 69 1016.1
20260504022005 10 228 0.0 0.0 0.00 0.00 0.00 69 1016.0
20260504021621 11 228 0.0 0.0 0.00 0.00 0.00 68 1015.8
20260504020512 11 228 0.0 0.0 0.00 0.00 0.00 67 1015.6
20260504020507 11 228 0.0 0.0 0.00 0.00 0.00 67 1015.7
20260504020122 11 228 0.0 0.0 0.00 0.00 0.00 67 1015.6
20260504015005 11 228 0.0 0.0 0.00 0.00 0.00 67 1015.5
20260504014505 11 228 0.0 0.0 0.00 0.00 0.00 67 1015.5
20260504014005 11 228 0.0 0.0 0.00 0.00 0.00 67 1015.4
20260504013506 11 228 0.0 0.0 0.00 0.00 0.00 65 1015.4
20260504013005 11 228 0.0 0.0 0.00 0.00 0.00 63 1015.3
20260504012505 12 227 0.0 0.0 0.00 0.00 0.00 63 1015.3
20260504012004 12 226 0.0 0.0 0.00 0.00 0.00 63 1015.3
20260504011508 12 228 0.0 0.0 0.00 0.00 0.00 60 1015.2
20260504011503 12 226 0.0 0.0 0.00 0.00 0.00 61 1015.3
20260504011120 12 226 0.0 0.0 0.00 0.00 0.00 60 1015.1
20260504010003 12 228 0.0 0.0 0.00 0.00 0.00 59 1015.0
20260504005504 12 226 0.0 0.0 0.00 0.00 0.00 58 1015.0
20260504005002 13 226 0.0 0.0 0.00 0.00 0.00 57 1014.9
20260504004501 13 226 0.0 0.0 0.00 0.00 0.00 56 1015.0
20260504004002 13 226 0.0 0.0 0.00 0.00 0.00 55 1015.0
20260504003501 13 226 0.0 0.0 0.00 0.00 0.00 55 1015.0
20260504003003 13 226 0.0 0.0 0.00 0.00 0.00 54 1014.9
20260504002501 14 226 0.0 0.0 0.00 0.00 0.00 54 1014.9
20260504002001 14 226 0.0 0.0 0.00 0.00 0.00 53 1014.7
20260504001459 15 226 0.0 0.0 0.00 0.00 0.00 52 1014.7
20260504000959 15 226 0.0 0.0 0.00 0.00 0.00 52 1014.6
20260504000459 15 226 0.0 0.0 0.00 0.00 0.00 51 1014.6
20260503235958 15 227 0.0 0.0 0.00 0.00 0.00 51 1014.6
20260503235457 16 227 0.0 0.0 0.00 0.00 0.00 49 1014.6
20260503235001 16 227 0.0 0.0 0.00 0.00 0.00 47 1014.6
20260503234956 16 226 0.0 0.0 0.00 0.00 0.00 49 1014.6
20260503234003 17 226 0.0 0.0 0.00 0.00 0.00 44 1014.5
20260503233957 16 226 0.0 0.0 0.00 0.00 0.00 45 1014.6
20260503233457 17 226 0.0 0.0 0.00 0.00 0.00 44 1014.6
20260503233113 17 226 0.0 1.6 0.00 0.00 0.00 41 1014.5
20260503232452 17 226 0.0 1.6 0.00 0.00 0.00 43 1014.5
20260503232112 17 228 1.6 3.2 0.00 0.00 0.00 40 1014.5
20260503230952 18 228 1.6 4.8 0.00 0.00 0.00 37 1014.6
20260503230452 18 240 1.6 4.8 0.00 0.00 0.00 37 1014.6
20260503225952 18 225 1.6 4.8 0.00 0.00 0.00 37 1014.6
20260503225458 18 248 3.2 8.0 0.00 0.00 0.00 36 1014.6
20260503225454 18 233 3.2 6.4 0.00 0.00 0.00 37 1014.6
20260503224453 18 246 1.6 8.0 0.00 0.00 0.00 36 1014.7
20260503223952 18 239 1.6 4.8 0.00 0.00 0.00 36 1014.7
20260503223453 18 229 3.2 6.4 0.00 0.00 0.00 35 1014.7
20260503222953 18 252 3.2 12.9 0.00 0.00 0.00 35 1014.9
20260503222454 18 242 1.6 12.9 0.00 0.00 0.00 34 1015.0
20260503221954 18 235 1.6 4.8 0.00 0.00 0.00 35 1014.9
20260503221450 18 233 1.6 6.4 0.00 0.00 0.00 36 1015.0
20260503220955 18 250 1.6 9.7 0.00 0.00 0.00 36 1015.0
20260503220950 18 240 1.6 9.7 0.00 0.00 0.00 35 1015.1
20260503220608 18 267 1.6 11.3 0.00 0.00 0.00 34 1015.2
20260503215950 18 262 3.2 8.0 0.00 0.00 0.00 35 1015.1
20260503215447 18 210 1.6 8.0 0.00 0.00 0.00 35 1015.2
20260503215104 18 264 1.6 11.3 0.00 0.00 0.00 34 1015.3
20260503213949 18 225 1.6 6.4 0.00 0.00 0.00 36 1015.3
20260503213945 18 218 1.6 6.4 0.00 0.00 0.00 37 1015.3
20260503212945 18 228 3.2 11.3 0.00 0.00 0.00 34 1015.4
20260503212451 19 236 3.2 9.7 0.00 0.00 0.00 33 1015.5
20260503212446 19 219 4.8 11.3 0.00 0.00 0.00 34 1015.5
20260503211444 19 228 3.2 9.7 0.00 0.00 0.00 34 1015.6